^^
Station Historical Data
 
Daily Summary for October 22, 2018 Units:  English    Metric   Both
« Previous Day
Next Day »
Daily Weekly Monthly Yearly Custom
  Current: High: Low: Average:
Temperature: 68.7 °F TemperatureF °F 48.7 °F 54.5 °F
Dew Point: 50.4 °F DewpointF °F 40.6 °F 43.6 °F
Humidity: 52% Humidity% 49% 67%
Wind Speed: 0mph WindSpeedMPHmph 0mph 4.3mph
Wind Gust: 0mph WindSpeedGustMPHmph - -
WindCalm - - South
Pressure: 30.05 in PressureIn in 30.05 in -
Precipitation: 0 in      
Historical Graphs
 
 
Tabular Data for October 22, 2018
Time Temperature Dew Point Pressure Wind Wind Speed Wind Gust Humidity Rainfall Rate (Hourly)
TemperatureF °F DewpointF °F PressureIn in Calm     Humidity% HourlyPrecipIn in
00:04 52.9 °F 40.6 °F 30.08 in South 4.6 mph 1.9 mph 63% 0 in
00:09 52.8 °F 41 °F 30.08 in South 6.9 mph 3.5 mph 64% 0 in
00:14 52.6 °F 40.8 °F 30.08 in SE 9 mph 3.5 mph 64% 0 in
00:19 52.6 °F 40.8 °F 30.07 in South 9.2 mph 4.6 mph 64% 0 in
00:24 52.4 °F 41 °F 30.07 in SSW 5.8 mph 2.6 mph 65% 0 in
00:29 52.2 °F 40.8 °F 30.08 in SSW 3.5 mph 2.5 mph 65% 0 in
00:34 52.1 °F 41.1 °F 30.08 in SSW 4.6 mph 0.8 mph 66% 0 in
00:39 51.8 °F 40.8 °F 30.08 in South 5.8 mph 2.7 mph 66% 0 in
00:44 51.6 °F 41 °F 30.07 in SSW 4.6 mph 1.9 mph 67% 0 in
00:49 51.3 °F 41.1 °F 30.07 in South 4.6 mph 2.3 mph 68% 0 in
00:54 51.1 °F 40.9 °F 30.07 in SSW 3.5 mph 2.2 mph 68% 0 in
00:59 51 °F 41.2 °F 30.07 in South 5.8 mph 2.9 mph 69% 0 in
01:04 50.8 °F 41 °F 30.07 in SSW 3.5 mph 0.9 mph 69% 0 in
01:09 50.7 °F 40.9 °F 30.07 in South 5.8 mph 1.5 mph 69% 0 in
01:14 50.5 °F 41.1 °F 30.07 in South 1.2 mph 0.5 mph 70% 0 in
01:19 50.4 °F 41 °F 30.07 in South 2.3 mph 1.7 mph 70% 0 in
01:24 50.3 °F 41.3 °F 30.07 in South 3 mph 0.2 mph 71% 0 in
01:29 50.1 °F 41.1 °F 30.07 in South 2.3 mph 0.9 mph 71% 0 in
01:34 49.9 °F 41.2 °F 30.07 in South 4 mph 0.9 mph 72% 0 in
01:39 49.7 °F 41 °F 30.07 in South 3.5 mph 0.3 mph 72% 0 in
01:44 49.5 °F 41.2 °F 30.07 in SSE 4.6 mph 0.4 mph 73% 0 in
01:49 49.3 °F 41 °F 30.07 in SSE 2.3 mph 0.9 mph 73% 0 in
01:54 49.1 °F 41.2 °F 30.07 in South 3.5 mph 1.1 mph 74% 0 in
01:59 49 °F 41.1 °F 30.07 in South 3 mph 2 mph 74% 0 in
02:04 48.9 °F 41.3 °F 30.07 in South 3.5 mph 2 mph 75% 0 in
02:08 48.8 °F 41.2 °F 30.07 in South 2.3 mph 1.9 mph 75% 0 in
02:14 48.8 °F 41.2 °F 30.07 in SE 2.3 mph 0.8 mph 75% 0 in
02:19 48.7 °F 41.1 °F 30.07 in South 3.5 mph 1.4 mph 75% 0 in
02:24 48.8 °F 41.2 °F 30.07 in South 4.6 mph 2 mph 75% 0 in
02:29 48.9 °F 41.3 °F 30.07 in South 3.5 mph 2.3 mph 75% 0 in
02:34 49 °F 41.4 °F 30.07 in SSE 2.3 mph 1.5 mph 75% 0 in
02:39 49.1 °F 41.5 °F 30.07 in SSW 4 mph 2.6 mph 75% 0 in
02:44 49.1 °F 41.5 °F 30.07 in South 5 mph 3.7 mph 75% 0 in
02:49 49.2 °F 41.6 °F 30.07 in South 6.9 mph 1.9 mph 75% 0 in
02:54 49.2 °F 41.3 °F 30.07 in SSE 6.9 mph 3.2 mph 74% 0 in
02:59 49.4 °F 41.5 °F 30.07 in SSW 6.9 mph 1.4 mph 74% 0 in
03:04 49.4 °F 41.5 °F 30.07 in South 8.1 mph 2.7 mph 74% 0 in
03:09 49.4 °F 41.5 °F 30.07 in South 3.5 mph 1.4 mph 74% 0 in
03:14 49.4 °F 41.5 °F 30.07 in SSW 9.2 mph 3.3 mph 74% 0 in
03:19 49.7 °F 41.7 °F 30.07 in SSW 10.4 mph 2 mph 74% 0 in
03:24 49.9 °F 41.6 °F 30.06 in South 10.4 mph 3.7 mph 73% 0 in
03:29 50.1 °F 41.8 °F 30.07 in SSW 6.9 mph 4 mph 73% 0 in
03:34 50.2 °F 41.9 °F 30.07 in South 5.8 mph 2.7 mph 73% 0 in
03:39 50.2 °F 41.9 °F 30.07 in South 4.6 mph 3.9 mph 73% 0 in
03:44 50.1 °F 41.8 °F 30.07 in South 4.6 mph 3.6 mph 73% 0 in
03:49 50 °F 41.7 °F 30.07 in SSW 4 mph 1.6 mph 73% 0 in
03:54 50 °F 41.7 °F 30.07 in South 2.3 mph 1 mph 73% 0 in
03:59 50.1 °F 41.8 °F 30.07 in ESE 3.5 mph 1.1 mph 73% 0 in
04:04 50.1 °F 41.4 °F 30.07 in SE 3.5 mph 0.3 mph 72% 0 in
04:09 50.2 °F 41.5 °F 30.07 in SW 4 mph 1.5 mph 72% 0 in
04:14 50.3 °F 41.6 °F 30.07 in South 2.3 mph 1.4 mph 72% 0 in
04:19 50.2 °F 41.5 °F 30.07 in South 2.3 mph 0.6 mph 72% 0 in
04:24 50.1 °F 41.8 °F 30.07 in SSE 3.5 mph 0.3 mph 73% 0 in
04:29 50 °F 41.7 °F 30.07 in South 3.5 mph 1.6 mph 73% 0 in
04:34 49.9 °F 41.6 °F 30.07 in South 4.6 mph 3.1 mph 73% 0 in
04:39 49.9 °F 41.6 °F 30.07 in South 3.5 mph 2.5 mph 73% 0 in
04:44 49.9 °F 41.6 °F 30.07 in South 3.5 mph 1.5 mph 73% 0 in
04:49 49.9 °F 41.6 °F 30.07 in SSE 4.6 mph 1.5 mph 73% 0 in
04:54 50 °F 41.7 °F 30.07 in South 2.3 mph 1.1 mph 73% 0 in
04:59 50 °F 41.7 °F 30.07 in South 4.6 mph 2.4 mph 73% 0 in
05:04 50.1 °F 41.4 °F 30.06 in South 3.5 mph 2.6 mph 72% 0 in
05:09 50.3 °F 41.6 °F 30.06 in SE 8.1 mph 2.6 mph 72% 0 in
05:14 50.4 °F 41.7 °F 30.06 in South 3.5 mph 2.5 mph 72% 0 in
05:19 50.3 °F 41.6 °F 30.06 in SSW 3.5 mph 3.4 mph 72% 0 in
05:24 50.3 °F 41.6 °F 30.06 in SW 5.8 mph 2.8 mph 72% 0 in
05:29 50.3 °F 41.6 °F 30.06 in ESE 9.2 mph 4.3 mph 72% 0 in
05:34 50.2 °F 41.5 °F 30.06 in South 8.1 mph 3.7 mph 72% 0 in
05:39 50.2 °F 41.9 °F 30.06 in South 2.3 mph 2.2 mph 73% 0 in
05:44 50.1 °F 41.8 °F 30.06 in SSE 1.2 mph 0.9 mph 73% 0 in
05:49 50 °F 41.7 °F 30.07 in SW 3.5 mph 1.1 mph 73% 0 in
05:54 50.1 °F 41.8 °F 30.06 in South 4.6 mph 1.8 mph 73% 0 in
05:59 50.2 °F 41.9 °F 30.07 in SSE 3.5 mph 1.8 mph 73% 0 in
06:04 50.2 °F 41.9 °F 30.07 in SSW 4.6 mph 2.9 mph 73% 0 in
06:09 50.2 °F 41.9 °F 30.07 in SSW 5.8 mph 2.5 mph 73% 0 in
06:14 50.1 °F 41.8 °F 30.07 in South 5 mph 2.3 mph 73% 0 in
06:19 50.1 °F 41.8 °F 30.07 in SSW 3.5 mph 1.8 mph 73% 0 in
06:24 50 °F 42 °F 30.07 in SSW 5.8 mph 3 mph 74% 0 in
06:29 49.9 °F 41.6 °F 30.06 in South 6.9 mph 2.8 mph 73% 0 in
06:34 49.8 °F 41.8 °F 30.07 in SSW 5.8 mph 3.5 mph 74% 0 in
06:39 49.7 °F 41.7 °F 30.07 in South 3.5 mph 0.2 mph 74% 0 in
06:44 49.6 °F 41.7 °F 30.07 in SSW 3 mph 2.3 mph 74% 0 in
06:49 49.3 °F 41.7 °F 30.07 in SW 3 mph 1.3 mph 75% 0 in
06:54 49.1 °F 41.5 °F 30.07 in SSE 3.5 mph 2.3 mph 75% 0 in
06:59 49 °F 41.4 °F 30.07 in SSW 9.2 mph 2.4 mph 75% 0 in
07:04 48.9 °F 41.7 °F 30.06 in SSW 5.8 mph 2.6 mph 76% 0 in
07:09 48.8 °F 41.6 °F 30.06 in SSW 5 mph 1.6 mph 76% 0 in
07:14 48.8 °F 41.6 °F 30.06 in South 4.6 mph 2.5 mph 76% 0 in
07:19 48.9 °F 41.7 °F 30.06 in SSW 5.8 mph 3 mph 76% 0 in
07:24 49 °F 41.8 °F 30.06 in South 3.5 mph 0.9 mph 76% 0 in
07:29 48.9 °F 41.7 °F 30.06 in SW 5 mph 2.9 mph 76% 0 in
07:34 49 °F 41.8 °F 30.06 in SSW 4 mph 2.6 mph 76% 0 in
07:39 48.9 °F 41.7 °F 30.06 in ESE 2.3 mph 0.3 mph 76% 0 in
07:44 48.8 °F 41.6 °F 30.06 in SSE 4 mph 1.8 mph 76% 0 in
07:49 48.9 °F 41.7 °F 30.06 in South 5.8 mph 2.2 mph 76% 0 in
07:54 48.9 °F 41.7 °F 30.06 in SSW 5.8 mph 3.6 mph 76% 0 in
07:59 49.1 °F 41.9 °F 30.05 in South 8.1 mph 3.8 mph 76% 0 in
08:04 49.2 °F 42 °F 30.05 in SW 6.9 mph 2.1 mph 76% 0 in
08:09 49.7 °F 42.1 °F 30.05 in South 8.1 mph 3.1 mph 75% 0 in
08:14 49.9 °F 42.3 °F 30.06 in SSW 4 mph 2.3 mph 75% 0 in
08:19 50.3 °F 42.3 °F 30.06 in SSW 6.9 mph 4.8 mph 74% 0 in
08:24 50.7 °F 42.7 °F 30.06 in SW 11.5 mph 4.3 mph 74% 0 in
08:29 51.1 °F 42.7 °F 30.06 in South 8.1 mph 4.5 mph 73% 0 in
08:34 51.4 °F 43 °F 30.07 in South 8.1 mph 3.6 mph 73% 0 in
08:39 51.6 °F 43.2 °F 30.07 in South 6.9 mph 1.5 mph 73% 0 in
08:44 51.8 °F 43.1 °F 30.07 in WSW 5.8 mph 3.7 mph 72% 0 in
08:49 52 °F 43.3 °F 30.07 in South 7 mph 2.5 mph 72% 0 in
08:54 52.2 °F 43.4 °F 30.08 in South 4.6 mph 2.8 mph 72% 0 in
08:59 52.5 °F 43.7 °F 30.08 in SSW 5.8 mph 0.8 mph 72% 0 in
09:04 52.9 °F 43.7 °F 30.08 in SSW 5.8 mph 3 mph 71% 0 in
09:09 53.4 °F 44.2 °F 30.08 in SSW 3.5 mph 1.4 mph 71% 0 in
09:14 53.8 °F 44.2 °F 30.08 in SSE 5.8 mph 2.1 mph 70% 0 in
09:19 54.2 °F 44.2 °F 30.09 in South 2.3 mph 1.6 mph 69% 0 in
09:24 54.5 °F 44.2 °F 30.09 in SSW 5.8 mph 3.6 mph 68% 0 in
09:29 54.9 °F 44.5 °F 30.09 in SSW 3 mph 0.8 mph 68% 0 in
09:34 55.3 °F 44.9 °F 30.09 in SSW 3.5 mph 1.3 mph 68% 0 in
09:39 55.5 °F 44.7 °F 30.09 in SSE 2.3 mph 1.6 mph 67% 0 in
09:44 55.7 °F 44.5 °F 30.10 in South 10.4 mph 2.6 mph 66% 0 in
09:49 55.8 °F 45 °F 30.10 in SW 2.3 mph 2.1 mph 67% 0 in
09:54 56.1 °F 45.3 °F 30.10 in SW 1.2 mph 1.2 mph 67% 0 in
09:59 56.6 °F 45.4 °F 30.11 in SSE 3.5 mph 1.8 mph 66% 0 in
10:04 57 °F 45.7 °F 30.11 in Calm     66% 0 in
10:09 57.6 °F 45.9 °F 30.10 in SSE 2.3 mph 1.3 mph 65% 0 in
10:14 57.9 °F 45.8 °F 30.10 in SSW 5.8 mph 0.5 mph 64% 0 in
10:19 58.3 °F 46.2 °F 30.10 in South 3.5 mph 1.3 mph 64% 0 in
10:24 58.7 °F 46.1 °F 30.10 in South 3.5 mph 1.7 mph 63% 0 in
10:29 58.8 °F 46.2 °F 30.10 in South 5.8 mph 2.1 mph 63% 0 in
10:34 59.2 °F 46.6 °F 30.10 in West 2.3 mph 0.7 mph 63% 0 in
10:39 59.7 °F 46.7 °F 30.10 in West 2.3 mph 1.5 mph 62% 0 in
10:44 59.9 °F 46.8 °F 30.10 in SE 5.8 mph 0.9 mph 62% 0 in
10:49 60.2 °F 46.7 °F 30.10 in SSE 2.3 mph 0.6 mph 61% 0 in
10:54 60.4 °F 46.9 °F 30.10 in SSE 3.5 mph 0.9 mph 61% 0 in
10:59 60.8 °F 46.8 °F 30.10 in SSE 3.5 mph 1.3 mph 60% 0 in
11:04 61.2 °F 47.2 °F 30.10 in South 2.3 mph 1.6 mph 60% 0 in
11:09 61.7 °F 47.7 °F 30.10 in SSE 4.6 mph 2.8 mph 60% 0 in
11:14 62.3 °F 47.8 °F 30.10 in South 1.2 mph 0.2 mph 59% 0 in
11:19 63 °F 48 °F 30.09 in WNW 2.3 mph 0.9 mph 58% 0 in
11:24 63.4 °F 47.9 °F 30.09 in South 3.5 mph 1.1 mph 57% 0 in
11:29 63.5 °F 47.5 °F 30.10 in South 3.5 mph 1.8 mph 56% 0 in
11:34 64 °F 48 °F 30.09 in SSE 3.5 mph 2 mph 56% 0 in
11:39 63.9 °F 47.9 °F 30.10 in SW 3.5 mph 1.1 mph 56% 0 in
11:44 64.3 °F 48.7 °F 30.10 in Calm     57% 0 in
11:49 64.8 °F 48.7 °F 30.10 in SSE 3.5 mph 1.1 mph 56% 0 in
11:54 65 °F 48.4 °F 30.10 in South 3.5 mph 2.3 mph 55% 0 in
11:59 64.5 °F 48 °F 30.10 in South 10.4 mph 3.8 mph 55% 0 in
12:04 64.2 °F 48.2 °F 30.10 in SSE 3.5 mph 1.1 mph 56% 0 in
12:09 64.7 °F 48.6 °F 30.09 in SSW 2 mph 2.5 mph 56% 0 in
12:14 64.9 °F 48.8 °F 30.09 in South 3.5 mph 1.7 mph 56% 0 in
12:19 65.2 °F 48.1 °F 30.09 in SSW 4.6 mph 2.5 mph 54% 0 in
12:24 65.6 °F 49.5 °F 30.09 in North 2.3 mph 0.9 mph 56% 0 in
12:29 65.8 °F 49.2 °F 30.09 in South 2.3 mph 0.6 mph 55% 0 in
12:34 66.2 °F 49.1 °F 30.09 in South 2.3 mph 1.3 mph 54% 0 in
12:39 66.5 °F 48.3 °F 30.09 in South 4.6 mph 3.5 mph 52% 0 in
12:44 66.2 °F 48.6 °F 30.09 in West 2.3 mph 0.6 mph 53% 0 in
12:49 66.3 °F 48.7 °F 30.08 in South 5.8 mph 4.3 mph 53% 0 in
12:54 66 °F 48.9 °F 30.08 in SSE 3.5 mph 2 mph 54% 0 in
12:59 66.5 °F 49.3 °F 30.08 in SSE 3.5 mph 0.2 mph 54% 0 in
13:04 67 °F 49.3 °F 30.08 in SSW 3.5 mph 2.8 mph 53% 0 in
13:09 67.2 °F 49.5 °F 30.07 in SSE 3.5 mph 1.4 mph 53% 0 in
13:14 67.2 °F 49.5 °F 30.07 in South 3.5 mph 1.4 mph 53% 0 in
13:19 67 °F 48.8 °F 30.07 in SSE 3.5 mph 0.9 mph 52% 0 in
13:24 67.1 °F 49.9 °F 30.07 in West 3.5 mph 0.2 mph 54% 0 in
13:29 67.9 °F 50.6 °F 30.07 in South 3 mph 1.9 mph 54% 0 in
13:34 67.8 °F 49.5 °F 30.07 in SSE 2.3 mph 0.7 mph 52% 0 in
13:39 68.1 °F 50.3 °F 30.06 in SSE 3.5 mph 1.1 mph 53% 0 in
13:44 68.7 °F 49.8 °F 30.06 in SW 2.3 mph 1.3 mph 51% 0 in
13:49 69.3 °F 49.9 °F 30.06 in WSW 2.3 mph 1 mph 50% 0 in
13:54 69.7 °F 50.8 °F 30.06 in WSW 1.2 mph 0.5 mph 51% 0 in
13:59 69.9 °F 50.4 °F 30.05 in WSW 1.2 mph 0.4 mph 50% 0 in
14:04 70.1 °F 50 °F 30.05 in WSW 2.3 mph 0.7 mph 49% 0 in
14:09 69.9 °F 49.9 °F 30.05 in South 4 mph 3.4 mph 49% 0 in
14:14 69.2 °F 49.2 °F 30.05 in South 4.6 mph 2.8 mph 49% 0 in
14:19 68.5 °F 49.1 °F 30.05 in NNE 3.5 mph 1.5 mph 50% 0 in
14:24 68.7 °F 50.4 °F 30.05 in Calm     52% 0 in
Live Lenexa Weather
Compliments of Weather Underground - 1.5 mb